| time (UTC) | temp F | wind direction | speed MPH | gust MPH | rain 1hr in | rain 24hr in | rain mn in | humidity % | barometer mb |
| 20260901125021 | 77 | 0 | 0.0 | 2.0 | 0.00 | 0.15 | 0.00 | 97 | 1016.6 |
| 20260901124543 | 77 | 286 | 0.0 | 2.0 | 0.00 | 0.15 | 0.00 | 97 | 1016.6 |
| 20260901124024 | 77 | 0 | 0.0 | 2.0 | 0.00 | 0.15 | 0.00 | 97 | 1016.5 |
| 20260901123520 | 77 | 51 | 0.0 | 1.0 | 0.00 | 0.15 | 0.00 | 97 | 1016.4 |
| 20260901123038 | 77 | 0 | 0.0 | 3.0 | 0.00 | 0.15 | 0.00 | 97 | 1016.4 |
| 20260901122521 | 77 | 0 | 0.0 | 3.0 | 0.00 | 0.15 | 0.00 | 97 | 1016.3 |
| 20260901122024 | 77 | 0 | 0.0 | 3.0 | 0.00 | 0.15 | 0.00 | 97 | 1016.3 |
| 20260901121542 | 77 | 0 | 0.0 | 2.0 | 0.00 | 0.15 | 0.00 | 97 | 1016.3 |
| 20260901121021 | 77 | 0 | 0.0 | 2.0 | 0.00 | 0.15 | 0.00 | 97 | 1016.2 |
| 20260901120520 | 77 | 0 | 0.0 | 2.0 | 0.00 | 0.15 | 0.00 | 97 | 1016.2 |
| 20260901120052 | 77 | 0 | 0.0 | 2.0 | 0.00 | 0.15 | 0.00 | 97 | 1016.3 |
| 20260901115518 | 77 | 0 | 0.0 | 0.0 | 0.00 | 0.15 | 0.00 | 97 | 1016.3 |
| 20260901115023 | 77 | 0 | 0.0 | 0.0 | 0.00 | 0.15 | 0.00 | 97 | 1016.2 |
| 20260901114540 | 76 | 0 | 0.0 | 0.0 | 0.00 | 0.15 | 0.00 | 97 | 1016.0 |
| 20260901114024 | 76 | 0 | 0.0 | 0.0 | 0.00 | 0.15 | 0.00 | 97 | 1016.0 |
| 20260901113526 | 76 | 0 | 0.0 | 0.0 | 0.00 | 0.15 | 0.00 | 97 | 1016.0 |
| 20260901113048 | 76 | 0 | 0.0 | 0.0 | 0.00 | 0.15 | 0.00 | 97 | 1016.0 |
| 20260901112522 | 76 | 0 | 0.0 | 0.0 | 0.00 | 0.15 | 0.00 | 97 | 1015.9 |
| 20260901112024 | 76 | 0 | 0.0 | 0.0 | 0.00 | 0.15 | 0.00 | 97 | 1015.9 |
| 20260901111550 | 76 | 0 | 0.0 | 2.0 | 0.00 | 0.15 | 0.00 | 97 | 1015.8 |
| 20260901111019 | 76 | 0 | 0.0 | 2.0 | 0.00 | 0.15 | 0.00 | 97 | 1015.6 |
| 20260901110520 | 76 | 0 | 0.0 | 4.0 | 0.00 | 0.15 | 0.00 | 97 | 1015.5 |
| 20260901110046 | 76 | 53 | 2.0 | 4.0 | 0.00 | 0.15 | 0.00 | 97 | 1015.4 |
| 20260901105523 | 76 | 38 | 0.0 | 2.0 | 0.00 | 0.15 | 0.00 | 97 | 1015.5 |
| 20260901105027 | 76 | 0 | 0.0 | 3.0 | 0.00 | 0.15 | 0.00 | 97 | 1015.5 |
| 20260901104544 | 76 | 0 | 0.0 | 3.0 | 0.00 | 0.15 | 0.00 | 97 | 1015.3 |
| 20260901104024 | 76 | 0 | 0.0 | 2.0 | 0.00 | 0.15 | 0.00 | 97 | 1015.4 |
| 20260901103525 | 76 | 0 | 0.0 | 0.0 | 0.00 | 0.15 | 0.00 | 97 | 1015.4 |
| 20260901103042 | 76 | 0 | 0.0 | 0.0 | 0.00 | 0.15 | 0.00 | 97 | 1015.3 |
| 20260901102521 | 76 | 0 | 0.0 | 2.0 | 0.00 | 0.15 | 0.00 | 97 | 1015.3 |
| 20260901102018 | 76 | 0 | 0.0 | 2.0 | 0.00 | 0.15 | 0.00 | 97 | 1015.2 |
| 20260901101540 | 76 | 0 | 0.0 | 2.0 | 0.00 | 0.15 | 0.00 | 97 | 1015.1 |
| 20260901101020 | 76 | 0 | 0.0 | 1.0 | 0.00 | 0.15 | 0.00 | 97 | 1015.2 |
| 20260901100518 | 76 | 0 | 0.0 | 2.0 | 0.00 | 0.15 | 0.00 | 97 | 1015.2 |
| 20260901100042 | 76 | 0 | 0.0 | 2.0 | 0.00 | 0.15 | 0.00 | 97 | 1015.1 |
| 20260901095523 | 76 | 0 | 0.0 | 2.0 | 0.00 | 0.15 | 0.00 | 97 | 1015.2 |
| 20260901095024 | 76 | 0 | 0.0 | 2.0 | 0.00 | 0.15 | 0.00 | 97 | 1015.1 |
| 20260901094544 | 76 | 0 | 0.0 | 4.0 | 0.00 | 0.15 | 0.00 | 97 | 1015.0 |
| 20260901094022 | 76 | 29 | 0.0 | 4.0 | 0.00 | 0.15 | 0.00 | 97 | 1015.1 |
| 20260901093527 | 76 | 44 | 0.0 | 4.0 | 0.00 | 0.15 | 0.00 | 97 | 1015.0 |
| 20260901093043 | 76 | 17 | 1.0 | 3.0 | 0.00 | 0.15 | 0.00 | 97 | 1014.9 |
| 20260901092518 | 76 | 38 | 0.0 | 2.0 | 0.00 | 0.15 | 0.00 | 97 | 1014.8 |
| 20260901092018 | 76 | 0 | 0.0 | 1.0 | 0.00 | 0.15 | 0.00 | 97 | 1014.7 |
| 20260901091541 | 75 | 0 | 0.0 | 1.0 | 0.00 | 0.15 | 0.00 | 97 | 1014.8 |
| 20260901091019 | 75 | 0 | 0.0 | 1.0 | 0.00 | 0.15 | 0.00 | 97 | 1014.8 |
| 20260901090519 | 75 | 0 | 0.0 | 1.0 | 0.00 | 0.15 | 0.00 | 97 | 1014.9 |
| 20260901090043 | 75 | 0 | 0.0 | 1.0 | 0.00 | 0.15 | 0.00 | 97 | 1014.9 |
| 20260901085525 | 75 | 0 | 0.0 | 1.0 | 0.00 | 0.15 | 0.00 | 97 | 1014.9 |
| 20260901085024 | 75 | 0 | 0.0 | 2.0 | 0.00 | 0.15 | 0.00 | 97 | 1014.9 |
| 20260901084542 | 75 | 0 | 0.0 | 2.0 | 0.00 | 0.15 | 0.00 | 97 | 1014.9 |
| 20260901084024 | 74 | 0 | 0.0 | 1.0 | 0.00 | 0.15 | 0.00 | 97 | 1014.9 |
| 20260901083519 | 74 | 0 | 0.0 | 0.0 | 0.00 | 0.15 | 0.00 | 97 | 1014.9 |
| 20260901083042 | 74 | 0 | 0.0 | 0.0 | 0.00 | 0.15 | 0.00 | 97 | 1014.8 |
| 20260901082518 | 74 | 0 | 0.0 | 1.0 | 0.00 | 0.15 | 0.00 | 97 | 1014.8 |
| 20260901082101 | 74 | 0 | 0.0 | 1.0 | 0.00 | 0.15 | 0.00 | 97 | 1014.8 |
| 20260901081540 | 74 | 0 | 0.0 | 1.0 | 0.00 | 0.15 | 0.00 | 97 | 1014.9 |
| 20260901081025 | 74 | 0 | 0.0 | 0.0 | 0.00 | 0.15 | 0.00 | 97 | 1014.8 |
| 20260901080525 | 74 | 0 | 0.0 | 0.0 | 0.00 | 0.15 | 0.00 | 97 | 1014.7 |
| 20260901080045 | 74 | 0 | 0.0 | 0.0 | 0.00 | 0.15 | 0.00 | 97 | 1014.8 |
| 20260901075525 | 74 | 0 | 0.0 | 0.0 | 0.00 | 0.15 | 0.00 | 97 | 1014.9 |
| 20260901075024 | 73 | 0 | 0.0 | 0.0 | 0.00 | 0.15 | 0.00 | 97 | 1014.9 |
| 20260901074541 | 73 | 0 | 0.0 | 0.0 | 0.00 | 0.15 | 0.00 | 97 | 1014.9 |
| 20260901074024 | 73 | 0 | 0.0 | 0.0 | 0.00 | 0.15 | 0.00 | 97 | 1014.9 |
| 20260901073524 | 73 | 0 | 0.0 | 0.0 | 0.00 | 0.15 | 0.00 | 97 | 1014.9 |
| 20260901073042 | 73 | 0 | 0.0 | 0.0 | 0.00 | 0.15 | 0.00 | 97 | 1014.9 |
| 20260901072524 | 73 | 0 | 0.0 | 0.0 | 0.00 | 0.15 | 0.00 | 97 | 1015.0 |
| 20260901072024 | 72 | 0 | 0.0 | 0.0 | 0.00 | 0.15 | 0.00 | 97 | 1014.9 |
| 20260901071540 | 73 | 0 | 0.0 | 0.0 | 0.00 | 0.15 | 0.00 | 97 | 1015.0 |
| 20260901071025 | 73 | 0 | 0.0 | 1.0 | 0.00 | 0.15 | 0.00 | 97 | 1015.0 |
| 20260901070526 | 73 | 0 | 0.0 | 1.0 | 0.00 | 0.15 | 0.00 | 97 | 1015.1 |
| 20260901070044 | 73 | 0 | 0.0 | 0.0 | 0.00 | 0.15 | 0.00 | 97 | 1015.3 |
| 20260901065525 | 73 | 0 | 0.0 | 1.0 | 0.00 | 0.15 | 0.00 | 97 | 1015.3 |
| 20260901065021 | 73 | 0 | 0.0 | 1.0 | 0.00 | 0.15 | 0.00 | 97 | 1015.5 |
| 20260901064543 | 73 | 0 | 0.0 | 1.0 | 0.00 | 0.15 | 0.00 | 97 | 1015.5 |
| 20260901064022 | 73 | 0 | 0.0 | 0.0 | 0.00 | 0.15 | 0.00 | 97 | 1015.7 |
| 20260901063517 | 73 | 0 | 0.0 | 0.0 | 0.00 | 0.15 | 0.00 | 97 | 1015.8 |
| 20260901063041 | 73 | 0 | 0.0 | 0.0 | 0.00 | 0.15 | 0.00 | 97 | 1015.7 |
| 20260901062518 | 73 | 0 | 0.0 | 0.0 | 0.00 | 0.15 | 0.00 | 97 | 1015.9 |
| 20260901062025 | 73 | 0 | 0.0 | 0.0 | 0.00 | 0.15 | 0.00 | 97 | 1016.0 |
| 20260901061541 | 73 | 0 | 0.0 | 0.0 | 0.00 | 0.15 | 0.00 | 96 | 1016.2 |
| 20260901061023 | 73 | 0 | 0.0 | 0.0 | 0.00 | 0.15 | 0.00 | 96 | 1016.3 |
| 20260901060525 | 73 | 0 | 0.0 | 0.0 | 0.00 | 0.15 | 0.00 | 97 | 1016.4 |
| 20260901060043 | 73 | 0 | 0.0 | 0.0 | 0.00 | 0.15 | 0.00 | 96 | 1016.4 |
| 20260901055524 | 73 | 0 | 0.0 | 0.0 | 0.00 | 0.15 | 0.00 | 97 | 1016.5 |
| 20260901055021 | 73 | 0 | 0.0 | 1.0 | 0.00 | 0.15 | 0.00 | 97 | 1016.4 |
| 20260901054544 | 73 | 0 | 0.0 | 2.0 | 0.00 | 0.15 | 0.00 | 96 | 1016.4 |
| 20260901054020 | 73 | 0 | 0.0 | 2.0 | 0.00 | 0.15 | 0.00 | 96 | 1016.5 |
| 20260901053520 | 73 | 290 | 1.0 | 2.0 | 0.00 | 0.15 | 0.00 | 96 | 1016.6 |
| 20260901053104 | 73 | 290 | 0.0 | 2.0 | 0.00 | 0.15 | 0.00 | 97 | 1016.6 |
| 20260901052527 | 73 | 0 | 0.0 | 0.0 | 0.00 | 0.15 | 0.00 | 96 | 1016.6 |
| 20260901052023 | 73 | 0 | 0.0 | 0.0 | 0.00 | 0.15 | 0.00 | 97 | 1016.7 |
| 20260901051559 | 73 | 0 | 0.0 | 0.0 | 0.00 | 0.15 | 0.00 | 96 | 1016.7 |
| 20260901051023 | 73 | 0 | 0.0 | 0.0 | 0.00 | 0.15 | 0.00 | 96 | 1016.6 |
| 20260901050518 | 73 | 0 | 0.0 | 0.0 | 0.00 | 0.15 | 0.00 | 96 | 1016.6 |
| 20260901050042 | 73 | 0 | 0.0 | 0.0 | 0.00 | 0.15 | 0.00 | 96 | 1016.6 |
| 20260901045521 | 73 | 0 | 0.0 | 0.0 | 0.00 | 0.15 | 0.00 | 96 | 1016.7 |
| 20260901045027 | 73 | 0 | 0.0 | 0.0 | 0.00 | 0.15 | 0.00 | 96 | 1016.8 |
| 20260901044553 | 73 | 0 | 0.0 | 0.0 | 0.00 | 0.15 | 0.00 | 96 | 1016.8 |
| 20260901044025 | 73 | 0 | 0.0 | 0.0 | 0.00 | 0.15 | 0.00 | 96 | 1016.9 |
| 20260901043523 | 73 | 0 | 0.0 | 0.0 | 0.00 | 0.15 | 0.00 | 96 | 1016.9 |
| 20260901043044 | 73 | 0 | 0.0 | 0.0 | 0.00 | 0.15 | 0.00 | 96 | 1017.1 |
| 20260901042521 | 74 | 0 | 0.0 | 0.0 | 0.00 | 0.15 | 0.00 | 96 | 1017.0 |
| 20260901042020 | 74 | 0 | 0.0 | 0.0 | 0.00 | 0.15 | 0.00 | 96 | 1017.1 |
| 20260901041541 | 73 | 0 | 0.0 | 0.0 | 0.00 | 0.15 | 0.00 | 96 | 1017.1 |
| 20260901041021 | 74 | 0 | 0.0 | 0.0 | 0.00 | 0.15 | 0.00 | 96 | 1017.1 |
| 20260901040525 | 74 | 0 | 0.0 | 0.0 | 0.00 | 0.15 | 0.00 | 96 | 1017.0 |
| 20260901040108 | 74 | 0 | 0.0 | 0.0 | 0.00 | 0.15 | 0.00 | 96 | 1017.1 |
| 20260901035529 | 74 | 0 | 0.0 | 0.0 | 0.00 | 0.15 | 0.15 | 96 | 1017.1 |
| 20260901035023 | 74 | 0 | 0.0 | 0.0 | 0.00 | 0.15 | 0.15 | 96 | 1017.2 |
| 20260901034559 | 74 | 0 | 0.0 | 0.0 | 0.00 | 0.15 | 0.15 | 96 | 1017.0 |
| 20260901034022 | 74 | 0 | 0.0 | 0.0 | 0.00 | 0.15 | 0.15 | 96 | 1017.0 |
| 20260901033520 | 74 | 0 | 0.0 | 0.0 | 0.00 | 0.15 | 0.15 | 96 | 1017.0 |
| 20260901033042 | 74 | 0 | 0.0 | 0.0 | 0.00 | 0.15 | 0.15 | 96 | 1017.1 |
| 20260901032525 | 74 | 0 | 0.0 | 0.0 | 0.00 | 0.15 | 0.15 | 96 | 1017.2 |
| 20260901032025 | 74 | 0 | 0.0 | 0.0 | 0.00 | 0.15 | 0.15 | 96 | 1017.1 |
| 20260901031543 | 74 | 0 | 0.0 | 0.0 | 0.00 | 0.15 | 0.15 | 96 | 1017.1 |
| 20260901031023 | 74 | 0 | 0.0 | 0.0 | 0.00 | 0.15 | 0.15 | 96 | 1017.1 |
| 20260901030523 | 74 | 0 | 0.0 | 0.0 | 0.00 | 0.15 | 0.15 | 96 | 1017.2 |
| 20260901030042 | 74 | 0 | 0.0 | 0.0 | 0.00 | 0.15 | 0.15 | 96 | 1017.2 |
| 20260901025524 | 74 | 0 | 0.0 | 0.0 | 0.00 | 0.15 | 0.15 | 96 | 1017.3 |
| 20260901025021 | 74 | 0 | 0.0 | 0.0 | 0.00 | 0.15 | 0.15 | 96 | 1017.3 |
| 20260901024545 | 74 | 0 | 0.0 | 0.0 | 0.00 | 0.15 | 0.15 | 96 | 1017.3 |
| 20260901024028 | 74 | 0 | 0.0 | 0.0 | 0.00 | 0.15 | 0.15 | 96 | 1017.3 |
| 20260901023525 | 74 | 0 | 0.0 | 0.0 | 0.00 | 0.15 | 0.15 | 96 | 1017.2 |
| 20260901023105 | 74 | 0 | 0.0 | 0.0 | 0.00 | 0.15 | 0.15 | 96 | 1017.2 |
| 20260901022524 | 74 | 0 | 0.0 | 0.0 | 0.00 | 0.15 | 0.15 | 96 | 1017.1 |
| 20260901022023 | 74 | 0 | 0.0 | 0.0 | 0.00 | 0.15 | 0.15 | 96 | 1017.0 |
| 20260901021552 | 74 | 0 | 0.0 | 0.0 | 0.00 | 0.15 | 0.15 | 96 | 1017.0 |
| 20260901021026 | 74 | 0 | 0.0 | 0.0 | 0.00 | 0.15 | 0.15 | 95 | 1017.0 |
| 20260901020525 | 74 | 0 | 0.0 | 3.0 | 0.00 | 0.15 | 0.15 | 95 | 1016.8 |
| 20260901020050 | 74 | 0 | 0.0 | 3.0 | 0.00 | 0.15 | 0.15 | 95 | 1016.7 |
| 20260901015526 | 74 | 290 | 1.0 | 3.0 | 0.00 | 0.15 | 0.15 | 95 | 1016.7 |
| 20260901015026 | 74 | 36 | 0.0 | 1.0 | 0.00 | 0.15 | 0.15 | 95 | 1016.6 |
| 20260901014554 | 75 | 0 | 0.0 | 0.0 | 0.00 | 0.15 | 0.15 | 95 | 1016.6 |
| 20260901014024 | 75 | 0 | 0.0 | 0.0 | 0.00 | 0.15 | 0.15 | 95 | 1016.4 |
| 20260901013524 | 75 | 0 | 0.0 | 0.0 | 0.00 | 0.15 | 0.15 | 95 | 1016.3 |
| 20260901013045 | 75 | 0 | 0.0 | 0.0 | 0.00 | 0.15 | 0.15 | 95 | 1016.3 |
| 20260901012525 | 75 | 0 | 0.0 | 0.0 | 0.00 | 0.15 | 0.15 | 95 | 1016.3 |
| 20260901012025 | 75 | 0 | 0.0 | 0.0 | 0.00 | 0.15 | 0.15 | 95 | 1016.1 |
| 20260901011549 | 75 | 0 | 0.0 | 0.0 | 0.00 | 0.15 | 0.15 | 95 | 1016.1 |
| 20260901011025 | 75 | 0 | 0.0 | 0.0 | 0.00 | 0.15 | 0.15 | 95 | 1016.0 |
| 20260901010526 | 75 | 0 | 0.0 | 0.0 | 0.00 | 0.15 | 0.15 | 95 | 1016.0 |
| 20260901010045 | 75 | 0 | 0.0 | 3.0 | 0.00 | 0.15 | 0.15 | 95 | 1016.1 |
| 20260901005530 | 75 | 0 | 0.0 | 3.0 | 0.00 | 0.15 | 0.15 | 94 | 1015.9 |
| 20260901005028 | 75 | 36 | 1.0 | 3.0 | 0.00 | 0.15 | 0.15 | 94 | 1015.9 |
| 20260901004558 | 75 | 90 | 1.0 | 3.0 | 0.00 | 0.15 | 0.15 | 94 | 1015.8 |
| 20260901004025 | 76 | 90 | 0.0 | 1.0 | 0.00 | 0.15 | 0.15 | 94 | 1015.8 |
| 20260901003526 | 76 | 0 | 0.0 | 0.0 | 0.00 | 0.15 | 0.15 | 94 | 1015.8 |
| 20260901003044 | 75 | 0 | 0.0 | 0.0 | 0.00 | 0.15 | 0.15 | 94 | 1015.8 |
| 20260901002526 | 75 | 0 | 0.0 | 0.0 | 0.00 | 0.15 | 0.15 | 94 | 1015.8 |
| 20260901002024 | 75 | 0 | 0.0 | 0.0 | 0.00 | 0.15 | 0.15 | 94 | 1015.8 |
| 20260901001542 | 75 | 0 | 0.0 | 0.0 | 0.00 | 0.15 | 0.15 | 94 | 1015.9 |
| 20260901001026 | 76 | 0 | 0.0 | 0.0 | 0.00 | 0.15 | 0.15 | 93 | 1015.9 |
| 20260901000525 | 76 | 0 | 0.0 | 3.0 | 0.00 | 0.15 | 0.15 | 93 | 1015.7 |
| 20260901000049 | 76 | 0 | 0.0 | 4.0 | 0.00 | 0.15 | 0.15 | 93 | 1015.6 |
| 20260831235525 | 76 | 90 | 1.0 | 4.0 | 0.00 | 0.15 | 0.15 | 93 | 1015.6 |
| 20260831235026 | 76 | 79 | 1.0 | 4.0 | 0.00 | 0.15 | 0.15 | 93 | 1015.5 |
| 20260831234545 | 76 | 0 | 0.0 | 2.0 | 0.00 | 0.15 | 0.15 | 93 | 1015.6 |
| 20260831234024 | 77 | 86 | 0.0 | 2.0 | 0.00 | 0.15 | 0.15 | 92 | 1015.6 |
| 20260831233524 | 77 | 0 | 0.0 | 3.0 | 0.00 | 0.15 | 0.15 | 93 | 1015.6 |
| 20260831233042 | 77 | 90 | 0.0 | 4.0 | 0.00 | 0.15 | 0.15 | 93 | 1015.6 |
| 20260831232535 | 76 | 110 | 1.0 | 4.0 | 0.00 | 0.15 | 0.15 | 93 | 1015.7 |
| 20260831232025 | 76 | 92 | 2.0 | 4.0 | 0.00 | 0.15 | 0.15 | 92 | 1015.7 |
| 20260831231544 | 77 | 118 | 2.0 | 4.0 | 0.00 | 0.15 | 0.15 | 92 | 1015.7 |
| 20260831231025 | 77 | 83 | 2.0 | 5.0 | 0.00 | 0.15 | 0.15 | 92 | 1015.6 |
| 20260831230529 | 77 | 81 | 2.0 | 7.0 | 0.00 | 0.15 | 0.15 | 92 | 1015.6 |
| 20260831230046 | 77 | 76 | 2.0 | 7.0 | 0.00 | 0.15 | 0.15 | 93 | 1015.7 |
| 20260831225523 | 77 | 119 | 2.0 | 6.0 | 0.00 | 0.15 | 0.15 | 92 | 1015.6 |
| 20260831225026 | 77 | 101 | 2.0 | 8.0 | 0.00 | 0.15 | 0.15 | 92 | 1015.6 |
| 20260831224541 | 77 | 73 | 3.0 | 8.0 | 0.01 | 0.15 | 0.15 | 92 | 1015.5 |
| 20260831224025 | 77 | 57 | 4.0 | 9.0 | 0.01 | 0.15 | 0.15 | 93 | 1015.4 |
| 20260831223530 | 76 | 90 | 5.0 | 11.0 | 0.02 | 0.15 | 0.15 | 93 | 1015.5 |
| 20260831223042 | 76 | 85 | 6.0 | 11.0 | 0.04 | 0.15 | 0.15 | 93 | 1015.5 |
| 20260831222524 | 76 | 78 | 5.0 | 12.0 | 0.04 | 0.15 | 0.15 | 93 | 1015.7 |
| 20260831222026 | 76 | 68 | 5.0 | 13.0 | 0.05 | 0.15 | 0.15 | 93 | 1015.7 |
| 20260831221556 | 76 | 58 | 8.0 | 14.0 | 0.06 | 0.15 | 0.15 | 94 | 1015.5 |
| 20260831221028 | 77 | 85 | 7.0 | 14.0 | 0.07 | 0.15 | 0.15 | 94 | 1015.6 |
| 20260831220520 | 77 | 86 | 6.0 | 11.0 | 0.08 | 0.15 | 0.15 | 94 | 1015.6 |
| 20260831220057 | 77 | 60 | 5.0 | 9.0 | 0.09 | 0.15 | 0.15 | 94 | 1015.6 |
| 20260831215519 | 77 | 115 | 3.0 | 9.0 | 0.09 | 0.15 | 0.15 | 94 | 1015.7 |
| 20260831215026 | 77 | 89 | 5.0 | 11.0 | 0.10 | 0.15 | 0.15 | 94 | 1015.8 |
| 20260831214549 | 77 | 96 | 3.0 | 11.0 | 0.10 | 0.14 | 0.14 | 94 | 1015.9 |
| 20260831214026 | 77 | 89 | 5.0 | 11.0 | 0.10 | 0.13 | 0.13 | 94 | 1015.9 |
| 20260831213524 | 77 | 85 | 5.0 | 9.0 | 0.09 | 0.12 | 0.12 | 94 | 1016.1 |
| 20260831213047 | 77 | 111 | 3.0 | 8.0 | 0.09 | 0.11 | 0.11 | 94 | 1016.1 |
| 20260831212526 | 76 | 107 | 3.0 | 8.0 | 0.09 | 0.11 | 0.11 | 94 | 1016.0 |
| 20260831212024 | 76 | 98 | 3.0 | 8.0 | 0.10 | 0.10 | 0.10 | 94 | 1016.0 |
| 20260831211542 | 76 | 106 | 3.0 | 8.0 | 0.09 | 0.09 | 0.09 | 94 | 1015.9 |
| 20260831211022 | 76 | 61 | 4.0 | 7.0 | 0.08 | 0.08 | 0.08 | 94 | 1015.9 |
| 20260831210519 | 76 | 64 | 4.0 | 7.0 | 0.07 | 0.07 | 0.07 | 94 | 1015.8 |
| 20260831210042 | 76 | 89 | 3.0 | 7.0 | 0.06 | 0.06 | 0.06 | 94 | 1015.8 |
| 20260831205527 | 76 | 66 | 3.0 | 7.0 | 0.06 | 0.06 | 0.06 | 94 | 1015.9 |
| 20260831205026 | 76 | 88 | 3.0 | 8.0 | 0.04 | 0.04 | 0.04 | 94 | 1016.1 |
| 20260831204554 | 76 | 78 | 3.0 | 8.0 | 0.04 | 0.04 | 0.04 | 93 | 1016.1 |
| 20260831204026 | 76 | 63 | 4.0 | 8.0 | 0.03 | 0.03 | 0.03 | 93 | 1016.2 |
| 20260831203523 | 76 | 66 | 4.0 | 10.0 | 0.03 | 0.03 | 0.03 | 93 | 1016.2 |
| 20260831203045 | 76 | 85 | 5.0 | 10.0 | 0.02 | 0.02 | 0.02 | 92 | 1016.2 |
| 20260831202521 | 77 | 57 | 5.0 | 9.0 | 0.02 | 0.02 | 0.02 | 91 | 1016.3 |
| 20260831202027 | 77 | 63 | 2.0 | 12.0 | 0.00 | 0.00 | 0.00 | 91 | 1016.4 |
| 20260831201542 | 78 | 89 | 4.0 | 12.0 | 0.00 | 0.00 | 0.00 | 90 | 1016.4 |
| 20260831201023 | 78 | 118 | 6.0 | 12.0 | 0.00 | 0.00 | 0.00 | 89 | 1016.3 |
| 20260831200526 | 78 | 105 | 7.0 | 16.0 | 0.00 | 0.00 | 0.00 | 89 | 1016.3 |
| 20260831200054 | 78 | 84 | 8.0 | 18.0 | 0.00 | 0.00 | 0.00 | 89 | 1016.2 |
| 20260831195528 | 79 | 91 | 10.0 | 23.0 | 0.00 | 0.00 | 0.00 | 88 | 1016.1 |
| 20260831195025 | 79 | 86 | 11.0 | 25.0 | 0.00 | 0.00 | 0.00 | 87 | 1016.0 |
| 20260831194544 | 81 | 45 | 15.0 | 25.0 | 0.00 | 0.00 | 0.00 | 84 | 1016.0 |
| 20260831194025 | 84 | 57 | 11.0 | 22.0 | 0.00 | 0.00 | 0.00 | 79 | 1015.9 |
| 20260831193519 | 86 | 69 | 9.0 | 18.0 | 0.00 | 0.00 | 0.00 | 75 | 1015.7 |
| 20260831193044 | 89 | 76 | 7.0 | 13.0 | 0.00 | 0.00 | 0.00 | 71 | 1015.5 |
| 20260831192521 | 91 | 309 | 1.0 | 4.0 | 0.00 | 0.00 | 0.00 | 70 | 1015.2 |
| 20260831192026 | 92 | 313 | 1.0 | 5.0 | 0.00 | 0.00 | 0.00 | 67 | 1015.1 |
| 20260831191538 | 92 | 257 | 1.0 | 6.0 | 0.00 | 0.00 | 0.00 | 67 | 1015.1 |
| 20260831191021 | 91 | 36 | 2.0 | 8.0 | 0.00 | 0.00 | 0.00 | 65 | 1015.2 |
| 20260831190525 | 90 | 256 | 2.0 | 8.0 | 0.00 | 0.00 | 0.00 | 70 | 1015.3 |
| 20260831190057 | 90 | 256 | 3.0 | 7.0 | 0.00 | 0.00 | 0.00 | 67 | 1015.3 |
| 20260831185525 | 90 | 275 | 2.0 | 5.0 | 0.00 | 0.04 | 0.00 | 70 | 1015.3 |
| 20260831185025 | 89 | 0 | 0.0 | 5.0 | 0.00 | 0.04 | 0.00 | 72 | 1015.3 |
| 20260831184543 | 90 | 319 | 0.0 | 5.0 | 0.00 | 0.04 | 0.00 | 70 | 1015.5 |
| 20260831184020 | 90 | 301 | 0.0 | 3.0 | 0.00 | 0.04 | 0.00 | 72 | 1015.4 |
| 20260831183523 | 87 | 0 | 0.0 | 6.0 | 0.00 | 0.04 | 0.00 | 73 | 1015.5 |
| 20260831183041 | 88 | 0 | 0.0 | 6.0 | 0.00 | 0.04 | 0.00 | 73 | 1015.5 |
| 20260831182520 | 90 | 32 | 3.0 | 6.0 | 0.00 | 0.04 | 0.00 | 66 | 1015.6 |
| 20260831182021 | 90 | 294 | 1.0 | 4.0 | 0.00 | 0.04 | 0.00 | 68 | 1015.7 |
| 20260831181540 | 89 | 0 | 0.0 | 4.0 | 0.00 | 0.04 | 0.00 | 69 | 1015.8 |
| 20260831181025 | 90 | 123 | 1.0 | 4.0 | 0.00 | 0.04 | 0.00 | 71 | 1015.9 |
| 20260831180525 | 90 | 0 | 1.0 | 4.0 | 0.00 | 0.04 | 0.00 | 67 | 1016.0 |
| 20260831180050 | 89 | 270 | 1.0 | 4.0 | 0.00 | 0.04 | 0.00 | 71 | 1016.0 |
| 20260831175524 | 88 | 140 | 1.0 | 7.0 | 0.00 | 0.04 | 0.00 | 74 | 1016.0 |
| 20260831175024 | 88 | 281 | 4.0 | 7.0 | 0.00 | 0.04 | 0.00 | 67 | 1016.1 |
| 20260831174546 | 89 | 226 | 1.0 | 8.0 | 0.00 | 0.04 | 0.00 | 68 | 1016.2 |
| 20260831174022 | 90 | 39 | 3.0 | 8.0 | 0.00 | 0.04 | 0.00 | 70 | 1016.3 |
| 20260831173521 | 89 | 261 | 1.0 | 4.0 | 0.00 | 0.04 | 0.00 | 71 | 1016.3 |
| 20260831173041 | 89 | 302 | 0.0 | 4.0 | 0.00 | 0.04 | 0.00 | 73 | 1016.4 |
| 20260831172525 | 90 | 0 | 1.0 | 4.0 | 0.00 | 0.04 | 0.00 | 67 | 1016.6 |
| 20260831172025 | 90 | 55 | 0.0 | 5.0 | 0.00 | 0.04 | 0.00 | 70 | 1016.5 |
| 20260831171552 | 89 | 300 | 1.0 | 5.0 | 0.00 | 0.04 | 0.00 | 67 | 1016.5 |
| 20260831171025 | 88 | 0 | 1.0 | 7.0 | 0.00 | 0.04 | 0.00 | 70 | 1016.7 |
| 20260831170524 | 87 | 274 | 2.0 | 7.0 | 0.00 | 0.04 | 0.00 | 72 | 1016.8 |
| 20260831170043 | 89 | 281 | 1.0 | 5.0 | 0.00 | 0.04 | 0.00 | 73 | 1016.9 |
| 20260831165523 | 88 | 53 | 2.0 | 6.0 | 0.00 | 0.04 | 0.00 | 73 | 1017.0 |
| 20260831165023 | 87 | 72 | 3.0 | 6.0 | 0.00 | 0.04 | 0.00 | 73 | 1017.1 |
| 20260831164555 | 87 | 69 | 0.0 | 4.0 | 0.00 | 0.04 | 0.00 | 79 | 1017.2 |
| 20260831164024 | 85 | 294 | 2.0 | 3.0 | 0.00 | 0.04 | 0.00 | 75 | 1017.2 |
| 20260831163526 | 85 | 0 | 0.0 | 3.0 | 0.00 | 0.04 | 0.00 | 75 | 1017.2 |
| 20260831163052 | 88 | 0 | 0.0 | 3.0 | 0.00 | 0.04 | 0.00 | 72 | 1017.2 |
| 20260831162525 | 88 | 0 | 0.0 | 3.0 | 0.00 | 0.04 | 0.00 | 79 | 1017.4 |
| 20260831162026 | 87 | 0 | 0.0 | 3.0 | 0.00 | 0.04 | 0.00 | 75 | 1017.4 |
| 20260831161545 | 86 | 0 | 0.0 | 4.0 | 0.00 | 0.04 | 0.00 | 76 | 1017.4 |
| 20260831161023 | 86 | 0 | 1.0 | 6.0 | 0.00 | 0.04 | 0.00 | 75 | 1017.4 |
| 20260831160527 | 87 | 0 | 1.0 | 7.0 | 0.00 | 0.04 | 0.00 | 76 | 1017.5 |
| 20260831160047 | 87 | 63 | 3.0 | 7.0 | 0.00 | 0.04 | 0.00 | 74 | 1017.5 |
| 20260831155525 | 87 | 61 | 0.0 | 7.0 | 0.00 | 0.04 | 0.00 | 76 | 1017.4 |
| 20260831155026 | 87 | 93 | 3.0 | 7.0 | 0.00 | 0.04 | 0.00 | 75 | 1017.4 |
| 20260831154608 | 86 | 84 | 1.0 | 7.0 | 0.00 | 0.04 | 0.00 | 78 | 1017.5 |
| 20260831154028 | 84 | 275 | 2.0 | 3.0 | 0.00 | 0.04 | 0.00 | 79 | 1017.5 |
| 20260831153525 | 84 | 255 | 0.0 | 4.0 | 0.00 | 0.04 | 0.00 | 81 | 1017.6 |
| 20260831153049 | 85 | 0 | 0.0 | 4.0 | 0.00 | 0.04 | 0.00 | 77 | 1017.6 |
| 20260831152523 | 87 | 46 | 2.0 | 4.0 | 0.00 | 0.04 | 0.00 | 77 | 1017.6 |
| 20260831152023 | 87 | 108 | 1.0 | 4.0 | 0.00 | 0.04 | 0.00 | 78 | 1017.5 |
| 20260831151548 | 86 | 63 | 2.0 | 5.0 | 0.00 | 0.04 | 0.00 | 77 | 1017.6 |
| 20260831151025 | 86 | 42 | 2.0 | 5.0 | 0.00 | 0.04 | 0.00 | 79 | 1017.6 |
| 20260831150526 | 86 | 24 | 1.0 | 4.0 | 0.00 | 0.04 | 0.00 | 77 | 1017.5 |
| 20260831150050 | 85 | 105 | 0.0 | 6.0 | 0.00 | 0.04 | 0.00 | 80 | 1017.4 |
| 20260831145526 | 85 | 54 | 2.0 | 6.0 | 0.00 | 0.04 | 0.00 | 79 | 1017.5 |
| 20260831145025 | 85 | 45 | 1.0 | 5.0 | 0.00 | 0.04 | 0.00 | 81 | 1017.4 |
| 20260831144559 | 84 | 190 | 1.0 | 5.0 | 0.00 | 0.04 | 0.00 | 79 | 1017.4 |
| 20260831144024 | 84 | 144 | 2.0 | 4.0 | 0.00 | 0.04 | 0.00 | 82 | 1017.3 |
| 20260831143524 | 84 | 284 | 0.0 | 5.0 | 0.00 | 0.04 | 0.00 | 80 | 1017.3 |
| 20260831143050 | 84 | 61 | 2.0 | 5.0 | 0.00 | 0.04 | 0.00 | 81 | 1017.3 |
| 20260831142524 | 84 | 26 | 1.0 | 4.0 | 0.00 | 0.04 | 0.00 | 84 | 1017.2 |
| 20260831142028 | 83 | 49 | 1.0 | 3.0 | 0.00 | 0.04 | 0.00 | 82 | 1017.1 |
| 20260831141555 | 83 | 122 | 1.0 | 2.0 | 0.00 | 0.04 | 0.00 | 84 | 1017.2 |
| 20260831141024 | 83 | 142 | 0.0 | 3.0 | 0.00 | 0.04 | 0.00 | 84 | 1017.2 |
| 20260831140528 | 83 | 0 | 0.0 | 3.0 | 0.00 | 0.04 | 0.00 | 85 | 1017.3 |
| 20260831140048 | 82 | 69 | 0.0 | 3.0 | 0.00 | 0.04 | 0.00 | 85 | 1017.2 |
| 20260831135525 | 82 | 321 | 0.0 | 2.0 | 0.00 | 0.04 | 0.00 | 86 | 1017.2 |
| 20260831135028 | 81 | 0 | 0.0 | 3.0 | 0.00 | 0.04 | 0.00 | 88 | 1017.2 |
| 20260831134545 | 81 | 136 | 0.0 | 3.0 | 0.00 | 0.04 | 0.00 | 89 | 1017.2 |
| 20260831134022 | 81 | 0 | 0.0 | 2.0 | 0.00 | 0.04 | 0.00 | 89 | 1017.1 |
| 20260831133527 | 81 | 0 | 0.0 | 3.0 | 0.00 | 0.04 | 0.00 | 90 | 1017.1 |
| 20260831133042 | 80 | 145 | 0.0 | 3.0 | 0.00 | 0.04 | 0.00 | 91 | 1017.1 |
| 20260831132522 | 80 | 151 | 1.0 | 3.0 | 0.00 | 0.04 | 0.00 | 92 | 1017.1 |
| 20260831132026 | 79 | 70 | 1.0 | 3.0 | 0.00 | 0.04 | 0.00 | 95 | 1017.1 |
| 20260831131540 | 79 | 84 | 1.0 | 2.0 | 0.00 | 0.04 | 0.00 | 96 | 1017.1 |
| 20260831131026 | 79 | 85 | 0.0 | 2.0 | 0.00 | 0.04 | 0.00 | 97 | 1017.2 |
| 20260831130524 | 78 | 0 | 0.0 | 3.0 | 0.00 | 0.04 | 0.00 | 97 | 1017.2 |
| 20260831130050 | 78 | 0 | 1.0 | 3.0 | 0.00 | 0.04 | 0.00 | 97 | 1017.3 |
| 20260831125523 | 78 | 286 | 0.0 | 3.0 | 0.00 | 0.04 | 0.00 | 97 | 1017.2 |